Tracking 30743 objects as of 21-Jun-2025
HD Live streaming from Space Station
objects crossing your sky now

SL-16 DEB

Track SL-16 DEB now!
10-day predictions


NORAD ID: 16389
Int'l Code: 1985-097C
Perigee: 844.0 km
Apogee: 1,121.7 km
Inclination: 71.0 °
Period: 104.6 minutes
Semi major axis: 7353 km
RCS: 0.0898 m2 (small)
Launch date: October 22, 1985
Source: Commonwealth of Independent States (former USSR) (CIS)
Launch site: TYURATAM MISSILE AND SPACE COMPLEX (TTMTR)

Note: This is SATELLITE DEBRIS
Your satellite tracking list
Your tracking list is empty




NASA's NSSDC Master Catalog

Two Line Element Set (TLE):
1 16389U 85097C   25171.36571143  .00000116  00000-0  14268-3 0  9994
2 16389  70.9990 155.6150 0188852 335.8221  23.4101 13.76667664991284
Source of the keplerian elements: AFSPC